Preview of NWS' New Version of Forecast
This preview is not operational and should not be used for support decisions.

Regional Weather Roundup (RWR)

Issued by National Weather Service (NWS)

                            
000
ASUS45 KBOU 191110
RWRCO 

WEATHER ROUNDUP FOR COLORADO
NATIONAL WEATHER SERVICE DENVER/BOULDER CO
400 AM MST TUE FEB 19 2019

NOTE: "FAIR" INDICATES FEW OR NO CLOUDS BELOW 12000 FEET WITH NO
SIGNIFICANT WEATHER AND/OR OBSTRUCTIONS TO VISIBILITY.

COZ001>005-013-030-031-191200-
...NORTHWEST COLORADO...
  
CITY           SKY/WX    TMP DP  RH WIND       PRES   REMARKS
CRAIG          LGT SNOW  10   5  80 W5        29.86S WCI   2          
HAYDEN         LGT SNOW   7   4  87 W5        29.84S FOG     WCI  -2  
MEEKER         LGT SNOW  13   8  81 CALM      29.83S                  
RANGELY        CLOUDY    15   6  66 E10       29.91S WCI   2          
RABBIT EARS PA LGT SNOW   7   5  92 SW6       29.63S WCI  -3          
STEAMBOAT SPGS CLOUDY     8   6  92 CALM      29.80S                  
WALDEN         CLOUDY     3   0  85 CALM      29.71F                  
$$

COZ006>008-011-191200-
...WEST CENTRAL VALLEYS...
  
CITY           SKY/WX    TMP DP  RH WIND       PRES   REMARKS
GRAND JUNCTION CLOUDY    22  20  92 N8        29.84F WCI  12          
MONTROSE       LGT SNOW  23  21  92 NW6       29.81F FOG     WCI  16  
EAGLE          FLURRIES  17  14  88 CALM      29.77F                  
RIFLE          CLOUDY    20  16  84 W7        29.82R WCI  11          
DELTA          CLOUDY    27  24  89 S6        29.82S WCI  21          
NUCLA          LGT SNOW  23  19  86 CALM      29.84S                  
$$

COZ017>023-064>068-191200-
...SOUTHWEST COLORADO...
  
CITY           SKY/WX    TMP DP  RH WIND       PRES   REMARKS
DURANGO        LGT SNOW  20  19  96 NE6       29.76F FOG     WCI  12  
CORTEZ         FLURRIES  18  14  84 NE3       29.79F                  
PAGOSA SPRINGS LGT SNOW  19  19 100 CALM      29.76S                  
TELLURIDE      FLURRIES  14  12  92 W5        29.70F WCI   6          
WOLF CREEK PAS CLOUDY     3   1  92 S12       29.67S WCI -13          
$$

COZ009-010-012-014-032>034-037-058>063-191200-
...CENTRAL COLORADO...
  
CITY           SKY/WX    TMP DP  RH WIND       PRES   REMARKS
ASPEN          LGT SNOW  15  11  83 CALM      29.69F FOG              
BUENA VISTA    LGT SNOW   3  -1  84 CALM      29.78F VSB 1            
COPPER MTN     CLOUDY     7   0  72 MISG      29.59F                  
BERTHOUD PASS    N/A      0  -9  65 SW7       29.59S WCI -13          
COTTONWOOD PAS LGT SNOW   9   5  85 CALM      29.67F                  
GUNNISON       LGT SNOW  14  12  92 CALM      29.72F FOG              
GRANBY         LGT SNOW  10   6  87 CALM      29.72S                  
KREMMLING      FLURRIES  10   9  92 CALM      29.75F                  
LEADVILLE      LGT SNOW   4   0  83 CALM      29.65S FOG              
MONARCH PASS   CLOUDY     5   0  78 MISG      29.71F                  
SALIDA         CLOUDY     7   3  84 SE3       29.88F                  
SUNLIGHT       LGT SNOW   5   1  85 MISG      29.67F VSB 1            
WILKERSON PASS CLOUDY     5   1  85 SW10G20   29.65F WCI -10          
$$

COZ069>075-191200-
...SAN LUIS VALLEY/SANGRE DE CRISTO MOUNTAINS...
  
CITY           SKY/WX    TMP DP  RH WIND       PRES   REMARKS
ALAMOSA        LGT SNOW  18  15  88 S18G28    29.73F FOG     WCI   2  
DEL NORTE      CLOUDY    13   9  83 S3        29.73S                  
LA VETA PASS   NOT AVBL                                               
SAGUACHE       LGT SNOW  18  16  93 CALM      29.74F                  
$$

COZ035-036-038>040-191200-
...NORTHERN COLORADO FRONT RANGE...
  
CITY           SKY/WX    TMP DP  RH WIND       PRES   REMARKS
DENVER INTL AP FLURRIES  14   7  73 S14       29.89F WCI  -1          
AURORA         CLOUDY    10   5  79 SE10      29.88F WCI  -4          
FRONT RANGE AP NOT AVBL                                               
ERIE MUNI ARPT LGT SNOW  14   8  78 CALM      29.98S                  
BOULDER MUN AP LGT SNOW  14  10  85 NE3       29.92R                  
CENTENNIAL     FLURRIES  11   5  77 S8        29.86F WCI  -1          
BROOMFIELD     CLOUDY    14  12  92 N5        29.89F WCI   6          
FORT COLLINS   CLOUDY    12   7  80 N6        29.94F WCI   3          
LONGMONT       LGT SNOW  16   8  72 E3        29.96R                  
$$

COZ041-046-047-076>085-087-088-191200-
...PIKES PEAK/PALMER DIVIDE AND SOUTHERN FOOTHILLS...
  
CITY           SKY/WX    TMP DP  RH WIND       PRES   REMARKS
COLO. SPRINGS  LGT SNOW   8   5  87 S3        29.90F FOG              
A. F. ACADEMY  CLOUDY     6   2  83 S9        29.85F WCI  -8          
SCHRIEVER AFB  NOT AVBL                                               
CHEYENNE MTN   LGT SNOW   4   1  90 CALM      29.78F                  
ELLICOTT       NOT AVBL                                               
FALCON         LGT SNOW   7   4  86 S9        29.85F WCI  -7          
FORT CARSON    LGT SNOW   9   5  83 CALM      29.90F                  
LIMON          LGT SNOW  10   8  92 S20G35    29.95F FOG     WCI  -9  
MONUMENT HILL  LGT SNOW   9   3  78 S10       29.82F WCI  -6          
CANON CITY     CLOUDY    10   7  85 CALM      29.94F                  
WALSENBURG     NOT AVBL                                               
TRINIDAD       FAIR       6   4  91 NE5       29.89F WCI  -3          
$$

COZ042>045-048>051-090-091-191200-
...NORTHEAST COLORADO...
  
CITY           SKY/WX    TMP DP  RH WIND       PRES   REMARKS
GREELEY ARPT   FLURRIES  16   9  74 SE6       29.96F WCI   7          
AKRON          LGT SNOW  12   9  87 SE18      30.01F FOG     WCI  -6  
BURLINGTON     LGT SNOW  13   9  84 SE16      30.08F FOG     WCI  -3  
WRAY           LGT SNOW  18  14  86 SE12      30.14F WCI   5          
YUMA           LGT SNOW  12  10  92 SE14      30.08F WCI  -3          
STERLING       LGT SNOW  16  12  86 S14       30.06S WCI   1          
HOLYOKE        FLURRIES  14  10  85 SE17      30.14S WCI  -3          
FORT MORGAN    LGT SNOW  14   9  79 SE15      30.00F WCI  -1          
$$

COZ086-089-092>099-191200-
...SOUTHEAST COLORADO...
  
CITY           SKY/WX    TMP DP  RH WIND       PRES   REMARKS
PUEBLO         LGT SNOW  14  11  87 CALM      29.99F FOG              
LA JUNTA       FAIR      11   7  84 E15       30.03F WCI  -5          
LAMAR          FLURRIES  16  11  80 SE14      30.09F WCI   2          
SPRINGFIELD      N/A     11  10  96 S10       30.07S WCI  -3          
$$